Location: College Park
(38.9810°N, 76.9370°W)
Time: 13:40:58
(UTC-05:00)

N. Korean satellite - Pass Details

Date: 10 November 2017
Orbit: 460 x 514 km, 97.2° (Epoch: 21 November)

Event Time Altitude Azimuth Distance (km) Brightness Sun altitude
Rises 18:45:57 0° 192° (SSW) 2,470 10.4 -21.2°
Reaches altitude 10° 18:48:12 10° 205° (SSW) 1,601 9.5 -21.7°
Maximum altitude 18:51:08 26° 264° (W) 944 8.8 -22.2°
Drops below altitude 10° 18:54:06 10° 323° (NW) 1,622 9.6 -22.8°
Sets 18:56:24 0° 336° (NNW) 2,509 10.4 -23.2°
